LIPRLIPE

Guest
Details From LIPR - Rimini Mil
To LIPE - BOLOGNA
Flight Number -
Tags decoded
Created
Modified
Stats Distance 65 nm / 120 km
Max Altitude 0 ft / 0 m
Waypoints 5
Social Downloads 3
Likes 0
Share VATSIM

Download

Looking for another format? Having issues loading an existing format? Contact us
Advertisement - Login to hide

Notes

Requested: LIPR CESEN GEPRI BOA02 LIPE

Route

LIPR CESEN GEPRI BOA02 LIPE

ID Type Via Altitude Latitude Longitude Leg Dist Tot Dist Heading (true) Name
O LIPR APT - 0 ft / 0 m 44.02029˚ 12.61175˚ - 0 nm - Rimini Mil
CESEN FIX - 0 ft / 0 m 44.17389˚ 12.17889˚ 20 nm 20 nm 296° / 296° -
GEPRI FIX - 0 ft / 0 m 44.45000˚ 11.48917˚ 33 nm 54 nm 299° / 299° -
BOA02 FIX - 0 ft / 0 m 44.52041˚ 11.33105˚ 7 nm 62 nm 302° / 302° -
O LIPE APT - 0 ft / 0 m 44.53545˚ 11.28866˚ 2 nm 64 nm 296° / 296° BOLOGNA

Altitude Profile

Advertisement - Login to hide

LIPR

Details ICAO LIPR (RMI)
Name Rimini Mil
Region Italy
Timezone Europe/Rome (UTC+2.0)
Stats Elevation 41 ft / 12 m (AMSL)
Location 44.020286° 12.611746°
Runways 1
Magnetic Variation 3.216° E

METAR

LIPR 261945Z 00000KT CAVOK 23/19 Q1018 RMK SKC VIS MIN 9999 WIND THR31 00000KT BLU

Decode

TAF

Not found

Departure Runways

ID Width Length Bearing (true) Bearing (mag) Surface Threshold Offset Overrun Length
13 148 ft / 45 m 9,818 ft / 2,992 m 127.79° 124.57° Asphalt 1,030 ft / 314 m 846 ft / 258 m
31 148 ft / 45 m 9,818 ft / 2,992 m 307.81° 304.59° Asphalt 1,006 ft / 307 m 376 ft / 115 m

LIPE

Details ICAO LIPE (BLQ)
Name BOLOGNA
Region Italy
Timezone Europe/Rome (UTC+2.0)
Stats Elevation 123 ft / 37 m (AMSL)
Location 44.535446° 11.288662°
Runways 1
Magnetic Variation 2.968° E

METAR

LIPE 261950Z 12006KT CAVOK 23/17 Q1019

Decode

TAF

TAF LIPE 261700Z 2618/2718 VRB05KT CAVOK TEMPO 2712/2718 TSRA

Decode

Destination Runways

ID Width Length Bearing (true) Bearing (mag) Surface Threshold Offset Overrun Length
12 148 ft / 45 m 9,185 ft / 2,800 m 116.78° 113.81° Asphalt 1,007 ft / 307 m 0 ft / 0 m
30 148 ft / 45 m 9,185 ft / 2,800 m 296.81° 293.84° Asphalt 1,188 ft / 362 m 200 ft / 61 m

Approach Navaids

Runway Type Ident Frequency Range Bearing (true) Bearing (mag) Slope Elevation
12 Localiser BLN 108.90 MHz 18 nm / 33 km 116.81° 113.84° - 123 ft / 37 m (AMSL)
12 Glidescope BLN 108.90 MHz 10 nm / 19 km 116.80° 113.83° 3.00° 120 ft / 37 m (AMSL)
12 DME BLN 108.90 MHz 18 nm / 33 km - - - 131 ft / 40 m (AMSL)
30 Localiser IBBP 109.75 MHz 18 nm / 33 km 296.66° 293.69° - 123 ft / 37 m (AMSL)
30 Glidescope IBBP 109.75 MHz 10 nm / 19 km 296.88° 293.91° 3.50° 123 ft / 37 m (AMSL)
30 DME IBBP 109.75 MHz 18 nm / 33 km - - - 123 ft / 37 m (AMSL)

Popular Alternatives